Home   Weather   Hopedale   Past weeks

Flag for Canada Past Weather in Hopedale, Newfoundland and Labrador, Canada — Yesterday and Last 2 Weeks

Now
57 °F

Cool.


Feels Like: 57 °F
Forecast: 50 / 56 °F
Wind: 3 mph from South

Location: Hopedale

Current Time: Jul 28, 2017 at 10:08:24 am

Latest Report: Jul 28, 2017 at 9:00 am


Visibility: N/A

Pressure: 29.58 "Hg

Humidity: 88%

Dew Point: 54 °F

Location of HopedaleLocation

Past Weather in Hopedale — Graph

°F

Hopedale Temperature Yesterday

Maximum temperature yesterday: 61 °F (at 4:00 pm)
Minimum temperature yesterday: 53 °F (at 9:00 pm)
Average temperature yesterday: 57 °F

High & Low Weather Summary for the Past Weeks

 TemperatureHumidityPressure
High83 °F (Jul 18, 6:00 pm)100% (Jul 24, 6:00 pm)30.07 "Hg (Jul 24, 6:00 pm)
Low42 °F (Jul 24, 8:00 am)27% (Jul 17, 5:00 pm)29.42 "Hg (Jul 15, 6:00 am)
Average55 °F76%29.71 "Hg
* Reported Jul 13 8:00 am — Jul 28 8:00 am, Hopedale. Weather by CustomWeather, © 2017

Note: Actual official high and low records may vary slightly from our data, if they occured in-between our weather recording intervals... More about our weather records

Advertising

Hopedale Weather History for the Previous 24 Hours

Scroll right to see more
 ConditionsComfort  
Time TempWeatherWind HumidityBarometerVisibility
8:00 am
Fri, Jul 28
54 °FCool.2 mph99%29.57 "HgN/A
7:00 am52 °FCool.3 mph94%29.57 "HgN/A
6:00 am54 °FCool.2 mph94%29.54 "HgN/A
5:00 am51 °FCool.3 mph94%29.56 "HgN/A
4:00 am51 °FCool.5 mph94%29.56 "HgN/A
3:00 am50 °FCool.6 mph93%29.55 "HgN/A
2:00 am52 °FCool.3 mph94%29.57 "HgN/A
1:00 am50 °FCool.6 mph95%29.57 "HgN/A
12:00 am53 °FCool.9 mph95%29.60 "HgN/A
11:00 pm
Thu, Jul 27
53 °FCool.7 mph96%29.61 "HgN/A
10:00 pm54 °FCool.12 mph91%29.61 "HgN/A
9:00 pm53 °FCool.5 mph95%29.60 "HgN/A
8:00 pm56 °FCool.13 mph95%29.60 "HgN/A
7:00 pm56 °FCool.3 mph95%29.62 "HgN/A
6:00 pm54 °FCool.6 mph90%29.62 "HgN/A
5:00 pm56 °FCool.7 mph87%29.61 "HgN/A
4:00 pm61 °FCool.3 mph80%29.62 "HgN/A
3:00 pm59 °FCool.7 mph85%29.60 "HgN/A
2:00 pm59 °FCool.2 mph85%29.62 "HgN/A
1:00 pm57 °FCool.6 mph87%29.66 "HgN/A
12:00 pm58 °FCool.1 mph86%29.66 "HgN/A
11:00 am59 °FCool.3 mph94%29.65 "HgN/A
10:00 am56 °FCool.3 mph94%29.65 "HgN/A
Weather by CustomWeather, © 2017

See weather overviewHow to use our weather pages